Weather in Rodniki

Russia / Chelyabinsk Oblast     54°13′07″N   61°14′42″E
temp.,
°C
wind,
m/s
gust,
m/s
humid.,
%
clouds,
%
prec.,
mm/h
press.,
hPa
HPBL,
m
21 april, wed
wed2123:00+3wnw36490 0.0 103195
02:00+2wnw35570 0.0 103287
05:00+1nw34600 0.0 103349
08:00+4nnw23520 0.0 1033186
11:00+8nw33400 0.0 1034942
14:00+11n22330 0.0 10321267
17:00+12nne013010 0.0 10321368
20:00+10ese223710 0.0 103319
22 april, thu
thu2223:00+8s3346100 0.0 103444
02:00+6s335030 0.0 103441
05:00+5ssw335670 0.0 103640
08:00+7ssw3752100 0.0 1036223
11:00+11s6836100 0.0 10361021
14:00+11s6835100 0.0 10361353
17:00+13ssw6831100 0.0 10351803
20:00+10s3744100 0.0 1034146
23 april, fri
fri2323:00+8s3952100 0.0 1034212
02:00+8ssw3755100 0.0 1034173
05:00+7s3764100 0.0 1034173
08:00+8sse3664100 0.0 1034275
11:00+12s71047100 0.0 10331742
14:00+12ssw6851100 0.1 10321498
17:00+14ssw3544100 0.1 10311770
20:00+12ese2253100 0.0 103011
24 april, sat
sat2423:00+11sse4957100 0.0 1029267
02:00+9ssw3956100 0.0 1029357
05:00+8nw1169100 0.0 102710
08:00+9ese4654100 0.0 1026426
11:00+10sse6946100 0.0 10251235
14:00+12se7939100 0.0 10221322
17:00+10sse71046100 0.0 10211552
20:00+7ese6117392 0.6 1020649
25 april, sun
sun2523:00+7ese7155483 0.6 1017513
02:00+8se81352100 0.1 1014658
05:00+7sse5957100 0.1 1012389
08:00+7ssw5985100 0.3 1012582
11:00+8wsw5984100 1.0 1013977
14:00+11w7116131 0.1 10141409
17:00+13wsw8115685 0.1 10141413
20:00+11w611601 0.1 1016412